Temp
-12 -12 -12 -12 -13 -13 -13 -13 -13 -13 -14 -14 -14 -14 -14 -14 -14 -14 -14 -15 -14 -14 -14 -14 -13 -13 -13 -13 -13 -13 -13 -12
-13 -13 -13 -13 -13 -13 -13 -13 -14 -14 -14 -14 -14 -14 -14 -14 -14 -14 -14 -14 -14 -14 -14 -14 -14 -14 -14 -13 -13 -13 -13 -14
-13 -13 -14 -14 -14 -14 -14 -14 -15 -15 -15 -15 -15 -15 -15 -15 -15 -15 -15 -15 -14 -14 -14 -14 -14 -14 -14 -14 -14 -14 -14 -14
-15 -15 -15 -15 -15 -15 -16 -16 -16 -16 -16 -16 -16 -15 -15 -15 -15 -16 -16 -16 -16 -15 -15 -14 -14 -14 -14 -14 -14 -14 -14 -15
-16 -16 -16 -16 -16 -17 -17 -17 -17 -16 -16 -16 -16 -16 -16 -16 -16 -16 -16 -16 -17 -18 -17 -17 -16 -16 -15 -15 -15 -15 -15 -14
-17 -17 -17 -17 -17 -17 -17 -17 -17 -17 -17 -17 -17 -17 -17 -17 -18 -17 -17 -17 -17 -17 -18 -18 -19 -18 -18 -17 -16 -16 -15 -15
-17 -18 -18 -18 -18 -18 -18 -18 -18 -18 -18 -18 -18 -18 -18 -17 -17 -17 -17 -17 -17 -17 -17 -17 -18 -18 -18 -18 -18 -17 -17 -16
-18 -18 -18 -18 -19 -19 -19 -20 -20 -19 -19 -18 -18 -18 -18 -17 -17 -17 -17 -17 -17 -17 -17 -17 -17 -17 -18 -17 -18 -18 -18 -17
-19 -19 -19 -19 -20 -20 -20 -20 -20 -19 -19 -18 -18 -18 -18 -17 -17 -17 -18 -18 -18 -18 -18 -18 -18 -18 -17 -17 -17 -17 -17 -17
-20 -20 -20 -21 -21 -21 -21 -21 -20 -20 -19 -19 -19 -19 -19 -18 -18 -18 -17 -17 -17 -18 -18 -18 -18 -18 -18 -17 -17 -17 -17 -17
-20 -21 -21 -22 -22 -22 -23 -23 -22 -22 -22 -21 -20 -20 -19 -18 -18 -18 -18 -18 -18 -18 -18 -18 -18 -19 -18 -18 -17 -17 -16 -16
-21 -21 -22 -22 -23 -23 -23 -23 -23 -23 -22 -21 -20 -20 -19 -18 -19 -19 -18 -18 -18 -18 -19 -19 -19 -19 -19 -18 -17 -16 -16 -17
-22 -22 -22 -23 -23 -23 -23 -23 -23 -23 -23 -21 -20 -20 -20 -20 -19 -19 -18 -18 -19 -19 -19 -19 -19 -19 -18 -18 -17 -17 -17 -17
-22 -22 -22 -23 -23 -23 -23 -23 -23 -23 -22 -22 -22 -22 -21 -20 -19 -19 -19 -19 -19 -19 -19 -19 -19 -19 -19 -18 -18 -17 -17 -17
-22 -23 -22 -23 -23 -23 -23 -23 -23 -23 -22 -22 -22 -22 -21 -21 -20 -20 -20 -19 -19 -19 -19 -19 -19 -19 -19 -19 -19 -19 -18 -18
-23 -22 -22 -22 -22 -22 -22 -23 -23 -22 -22 -23 -23 -23 -23 -23 -22 -22 -21 -20 -20 -19 -19 -19 -19 -19 -19 -19 -19 -19 -19 -19
-22 -22 -22 -22 -22 -22 -22 -22 -23 -23 -24 -25 -25 -24 -24 -23 -23 -23 -22 -22 -22 -22 -22 -21 -21 -20 -20 -20 -20 -20 -19 -19
-22 -22 -22 -22 -23 -22 -23 -23 -23 -24 -25 -25 -24 -24 -23 -23 -23 -23 -23 -23 -22 -22 -23 -22 -22 -22 -22 -22 -21 -20 -20 -20
-22 -22 -22 -22 -23 -22 -23 -23 -24 -24 -25 -24 -24 -23 -23 -23 -23 -23 -23 -23 -23 -23 -23 -23 -23 -22 -22 -22 -22 -22 -22 -21
Height
5759 5756 5752 5749 5746 5743 5739 5736 5733 5730 5727 5724 5721 5718 5717 5717 5717 5718 5720 5718 5717 5717 5717 5717 5718 5718 5720 5721 5720 5721 5723 5723
5747 5744 5740 5736 5732 5727 5723 5720 5717 5715 5712 5709 5706 5703 5701 5698 5697 5697 5698 5698 5699 5698 5698 5700 5700 5701 5702 5703 5706 5705 5707 5705
5734 5731 5727 5722 5717 5712 5708 5704 5701 5698 5696 5693 5691 5688 5685 5682 5680 5678 5675 5675 5676 5677 5677 5678 5680 5682 5684 5686 5686 5688 5689 5689
5723 5718 5714 5708 5703 5699 5695 5690 5686 5682 5679 5676 5672 5669 5666 5663 5660 5657 5654 5653 5650 5651 5653 5653 5655 5657 5661 5665 5668 5669 5671 5671
5709 5704 5699 5694 5689 5684 5680 5675 5670 5666 5662 5657 5654 5650 5646 5641 5637 5633 5632 5630 5629 5627 5626 5627 5629 5631 5637 5641 5644 5649 5651 5658
5695 5690 5685 5680 5675 5670 5665 5658 5652 5646 5641 5637 5633 5629 5625 5621 5619 5616 5614 5611 5610 5608 5609 5609 5608 5611 5613 5617 5621 5626 5631 5637
5682 5677 5672 5666 5660 5654 5647 5640 5634 5628 5623 5619 5614 5611 5607 5604 5601 5600 5598 5596 5594 5592 5591 5590 5590 5591 5595 5598 5601 5606 5612 5618
5668 5662 5657 5652 5646 5638 5631 5624 5618 5612 5608 5605 5600 5597 5594 5591 5588 5586 5583 5581 5578 5575 5573 5573 5573 5573 5575 5579 5583 5589 5595 5602
5655 5650 5644 5638 5632 5625 5617 5612 5606 5601 5596 5592 5589 5585 5582 5579 5576 5572 5569 5567 5565 5561 5558 5557 5556 5556 5558 5562 5567 5573 5580 5587
5645 5639 5632 5626 5620 5613 5606 5600 5595 5590 5585 5582 5579 5575 5572 5568 5565 5562 5558 5554 5550 5546 5543 5542 5542 5543 5544 5546 5552 5557 5563 5570
5633 5628 5622 5616 5609 5603 5596 5590 5585 5581 5578 5575 5572 5569 5564 5560 5555 5551 5546 5542 5540 5536 5533 5531 5530 5531 5530 5534 5539 5545 5550 5556
5622 5617 5611 5606 5601 5596 5590 5584 5580 5577 5573 5570 5566 5561 5556 5551 5548 5545 5541 5538 5534 5531 5527 5526 5524 5523 5522 5526 5531 5535 5540 5544
5612 5608 5603 5600 5596 5591 5584 5579 5576 5573 5570 5566 5561 5555 5549 5545 5544 5541 5538 5535 5532 5528 5526 5523 5522 5521 5522 5524 5527 5530 5534 5537
5604 5599 5597 5595 5591 5585 5581 5576 5573 5572 5569 5564 5559 5553 5549 5544 5540 5539 5536 5534 5531 5527 5525 5523 5522 5521 5522 5522 5524 5526 5529 5531
5596 5592 5591 5588 5585 5582 5578 5575 5573 5570 5566 5564 5559 5554 5550 5544 5541 5538 5536 5533 5530 5527 5525 5524 5523 5522 5522 5521 5521 5521 5523 5525
5589 5586 5584 5582 5580 5578 5576 5574 5573 5570 5564 5561 5557 5554 5551 5547 5543 5540 5536 5534 5531 5528 5526 5525 5523 5521 5520 5519 5520 5521 5521 5522
5583 5580 5578 5577 5575 5574 5571 5570 5567 5565 5563 5562 5561 5559 5556 5552 5549 5545 5541 5539 5536 5531 5529 5527 5525 5524 5522 5521 5520 5519 5519 5520
5577 5575 5573 5572 5571 5570 5569 5568 5567 5565 5565 5565 5563 5561 5559 5555 5553 5550 5546 5544 5541 5538 5536 5533 5530 5528 5525 5523 5521 5519 5518 5517
5571 5569 5568 5567 5567 5566 5565 5566 5564 5564 5564 5565 5564 5562 5560 5557 5554 5551 5549 5547 5545 5542 5540 5537 5534 5532 5528 5526 5524 5523 5521 5520
Wind_Speed
52 54 55 57 59 59 61 62 63 64 64 64 65 65 65 64 63 60 59 61 63 64 66 67 69 71 70 69 69 70 67 68
56 57 59 61 63 64 65 66 67 67 66 66 65 65 66 66 67 67 68 68 68 68 68 69 71 73 73 73 72 73 73 73
58 60 63 65 67 68 69 70 69 69 68 66 66 67 69 70 71 72 73 73 73 74 76 76 76 75 75 75 76 75 76 78
61 63 64 66 67 67 68 68 68 68 68 70 71 71 71 71 70 71 71 71 72 74 76 78 79 81 80 78 77 79 79 81
60 62 64 65 65 64 65 67 68 70 72 73 74 75 73 72 71 69 64 60 59 60 64 69 74 77 80 82 80 79 81 80
60 60 61 63 63 66 68 70 71 72 72 72 70 68 65 61 56 53 57 58 57 58 59 61 63 63 68 72 74 78 79 79
59 61 64 66 66 65 67 68 68 67 66 63 60 56 54 53 51 49 46 49 53 55 55 53 59 67 65 65 65 68 73 75
61 62 63 63 63 63 61 59 58 59 57 54 52 49 46 45 46 47 50 52 51 50 50 51 54 57 62 66 66 62 60 60
59 59 61 60 55 54 54 53 52 51 50 47 44 42 40 40 41 42 36 37 42 42 46 47 47 50 52 54 59 63 60 57
56 57 54 50 49 48 48 50 49 46 43 41 37 35 35 35 34 38 38 41 45 43 41 42 45 45 45 47 48 51 56 58
53 53 50 46 45 43 41 39 37 34 32 30 27 29 30 31 26 29 31 26 25 25 25 26 28 35 39 42 45 45 46 49
52 48 40 36 29 29 34 32 27 23 22 23 27 27 26 21 19 16 11 11 12 16 14 13 16 16 18 26 34 40 42 42
44 37 30 25 31 32 28 24 22 18 21 25 26 25 21 18 18 17 9 7 9 8 5 4 4 5 9 15 21 25 28 31
37 32 28 29 30 25 22 19 16 20 18 16 20 13 12 12 10 10 9 7 9 10 6 4 2 2 4 8 13 19 24 28
34 29 30 27 25 21 17 12 18 19 10 5 4 11 11 14 12 10 8 5 4 5 5 6 5 5 6 8 10 13 19 23
29 29 25 23 21 17 14 13 19 10 14 18 22 26 27 27 29 27 25 21 19 16 10 7 8 8 8 1 7 14 15 17
26 22 22 18 18 16 15 14 19 8 14 13 13 15 17 20 22 24 26 26 27 30 31 28 26 21 14 11 5 2 4 8
23 20 19 17 15 15 11 18 7 10 7 6 7 10 13 16 17 19 22 21 22 23 24 25 25 26 26 26 23 16 14 6
22 22 19 16 16 16 14 15 11 4 7 4 5 6 8 11 12 14 15 15 16 17 17 19 20 20 22 22 22 22 21 14
Wind_Direction
282 283 283 283 284 283 282 281 281 282 282 281 281 280 279 279 277 275 272 270 269 266 265 264 265 265 264 263 265 264 262 261
287 288 287 286 286 285 284 284 284 284 283 282 282 282 282 282 280 278 276 273 271 269 266 264 263 263 263 263 262 263 264 265
284 284 285 285 284 284 285 285 285 285 285 285 284 285 286 285 284 283 281 278 274 270 269 267 265 261 260 260 262 262 262 263
286 286 285 285 285 286 287 287 288 288 288 289 290 290 288 286 284 281 279 277 275 273 269 267 264 263 261 258 257 258 260 262
285 286 285 286 289 290 291 291 293 293 292 292 291 290 288 285 283 282 281 277 272 269 268 265 262 262 260 259 257 256 255 255
288 289 291 291 293 295 296 296 295 294 292 291 289 287 285 282 280 277 276 275 275 276 271 266 262 259 260 257 255 254 254 254
293 294 295 297 299 298 296 294 294 293 292 289 288 287 285 283 280 278 275 277 275 272 271 269 263 258 255 256 255 253 250 252
297 298 299 300 298 297 296 293 292 291 292 290 288 286 284 281 279 280 279 278 278 276 274 270 266 262 257 254 254 250 250 251
298 299 297 298 299 296 294 294 292 290 289 290 288 286 284 284 285 287 287 280 279 274 273 271 267 263 259 256 251 248 248 248
298 299 301 301 298 297 297 297 295 293 291 289 290 288 292 296 291 289 288 287 284 278 271 267 261 262 258 254 248 246 245 247
302 303 303 301 302 304 303 301 297 293 293 295 297 296 293 292 291 295 293 287 283 290 280 275 263 262 257 247 244 247 248 245
304 303 303 305 312 311 305 297 297 299 298 303 310 308 301 306 304 303 301 304 309 309 295 277 268 265 250 237 238 242 248 249
302 304 300 306 310 307 302 294 294 300 304 308 312 311 324 309 294 308 316 330 323 324 330 318 293 281 257 243 243 246 249 247
300 297 292 302 310 306 299 289 286 287 282 301 309 306 326 320 296 294 321 349 357 0 0 335 317 231 216 232 243 246 250 250
297 291 293 298 302 301 298 288 265 270 236 189 144 92 95 90 89 84 62 23 28 356 332 316 313 288 259 233 220 221 222 234
295 292 293 293 291 292 293 266 262 214 122 78 68 57 57 55 59 60 63 66 72 75 67 64 57 31 22 35 238 240 238 235
294 289 293 282 283 287 297 288 255 132 74 71 69 72 69 67 66 64 63 60 56 55 52 53 54 51 68 70 72 280 252 235
291 286 285 274 277 279 281 250 165 132 115 91 88 80 69 67 64 64 63 61 62 62 59 57 56 52 48 46 42 38 35 26
286 284 273 263 269 274 274 232 182 162 139 163 128 89 72 63 59 54 53 49 49 54 56 56 53 50 46 42 40 37 42 41